Regional Weather Roundup
Issued by NWS State College, PA

Home | Current Version | Previous Version | Graphics & Text | Print | Product List | Glossary On
Versions: 1 2 3 4 5 6 7 8 9 10 11 12 13 14 15 16 17 18 19 20 21 22 23 24 25 26 27 28 29 30 31 32 33 34 35 36 37 38 39 40 41 42 43 44 45 46 47 48 49 50
000
ASUS41 KCTP 290203
RWRCTP

REGIONAL WEATHER ROUNDUP
NATIONAL WEATHER SERVICE STATE COLLEGE PA
1000 PM EDT SUN MAY 28 2017

Note: "fair" indicates few or no clouds below 12,000 feet with no
significant weather and/or obstructions to visibility.

* = STATION THAT DOES NOT REPORT PRECIPITATION /E.G. RAIN...SNOW...ETC/
    THUNDER OR FOG.

PAZ002>004-007>009-013>016-020>023-029>032-290300-
WESTERN PENNSYLVANIA

CITY           SKY/WX    TMP DP  RH WIND       PRES   REMARKS
ERIE           LGT RAIN  63  60  90 S15       29.74R
MEADVILLE      LGT RAIN  60  60 100 E6        29.78R
FRANKLIN*      CLOUDY    61  57  88 S5        29.83R
NEW CASTLE     LGT RAIN  63  62  97 NE9       29.78S
BEAVER COUNTY  NOT AVBL
BUTLER*        CLOUDY    64  61  88 N8        29.78R
PITTSBURGH INT CLOUDY    72  64  76 SW6       29.77R
PITTSBURGH     PTCLDY    71  60  68 SW9       29.77R
INDIANA*       FOG       64  63  94 SE8       29.82R VSB 3/4
LATROBE        PTCLDY    68  64  88 SW13      29.78F
WASHINGTON CO* MOCLDY    68  61  77 SW5       29.80R
$$

PAZ004>006-010>012-017>019-024>028-033>037-041-042-045-046-049>053-290300-
CENTRAL PENNSYLVANIA

CITY           SKY/WX    TMP DP  RH WIND       PRES   REMARKS
BRADFORD       MOCLDY    60  59  96 S5        29.81R
DUBOIS         LGT RAIN  61  59  93 S7        29.82R FOG
CLEARFIELD     RAIN      62  61  96 VRB5      29.84R FOG
JOHNSTOWN      MOCLDY    60  59  96 S12       29.83S
ALTOONA        CLOUDY    62  61  96 S3        29.84S
STATE COLLEGE  NOT AVBL
WILLIAMSPORT   CLOUDY    66  62  87 E10G17    29.83R
SELINSGROVE    CLOUDY    64  62  93 S3        29.85S
FT INDIANTOWN  LGT RAIN  63  63 100 SE8       29.87S FOG
CAPITAL CITY   LGT RAIN  64  61  90 E6        29.86S FOG
HARRISBURG     LGT RAIN  64  62  93 SE7       29.86R
YORK           CLOUDY    64  63  96 E6        29.86S
$$

PAZ038>040-043-044-047-048-054-055-060>062-067>071-290300-
EASTERN PENNSYLVANIA

CITY           SKY/WX    TMP DP  RH WIND       PRES   REMARKS
SCRANTON       LGT RAIN  65  57  75 CALM      29.87S
MOUNT POCONO   LGT RAIN  56  55  97 SE12      29.92R
ALLENTOWN      LGT RAIN  63  56  78 E10       29.90R
QUAKERTOWN*    CLOUDY    59  59 100 E7        29.90S
READING        LGT RAIN  62  60  93 SE7       29.87R
LANCASTER      LGT RAIN  64  62  93 E6        29.87R
COATESVILLE    LGT RAIN  59  59 100 E14       29.89S
POTTSTOWN      LGT RAIN  60  59  96 VRB6      29.90S
BLUE BELL      CLOUDY    57  57 100 E7        29.90S
DOYLESTOWN     LGT RAIN  59  57  93 CALM      29.89F
WILLOW GROVE   NOT AVBL
NORTH PHILA    LGT RAIN  61  58  90 E9        29.91S
PHILADELPHIA   LGT RAIN  61  57  87 E10       29.88S
$$




USA.gov is the U.S. government's official web portal to all federal, state and local government web resources and services.